Time,TemperatureF,DewpointF,PressureIn,WindDirection,WindDirectionDegrees,WindSpeedMPH,WindSpeedGustMPH,Humidity,HourlyPrecipIn,Conditions,Clouds,dailyrainin,SoftwareType,DateUTC
2013-04-05 00:00:00,19.0,-99.9,-100.00,North,-999,-999.0,-999.0,-999,0.00,,,-99.99,,2013-04-05 08:00:00,
2013-04-05 00:43:00,19.0,-99.9,-100.00,North,-999,-999.0,-999.0,-999,0.00,,,-99.99,,2013-04-05 08:43:00,
2013-04-05 00:52:00,19.0,-99.9,-100.00,North,-999,-999.0,-999.0,-999,0.00,,,-99.99,,2013-04-05 08:52:00,
2013-04-05 01:00:00,15.0,-99.9,-100.00,North,-999,-999.0,-999.0,-999,0.10,,,1.00,,2013-04-05 09:00:00,
2013-04-05 01:43:00,15.0,-99.9,-100.00,North,-999,-999.0,-999.0,-999,0.10,,,1.00,,2013-04-05 09:43:00,
2013-04-05 01:53:00,15.0,-99.9,-100.00,North,-999,-999.0,-999.0,-999,0.10,,,1.00,,2013-04-05 09:53:00,
2013-04-05 02:43:00,13.0,-99.9,-100.00,North,-999,-999.0,-999.0,-999,-99.99,,,-99.99,,2013-04-05 10:43:00,
2013-04-05 02:54:00,13.0,-99.9,-100.00,North,-999,-999.0,-999.0,-999,-99.99,,,-99.99,,2013-04-05 10:54:00,
2013-04-05 03:42:00,13.0,-99.9,-100.00,North,-999,-999.0,-999.0,-999,-99.99,,,1.00,,2013-04-05 11:42:00,
2013-04-05 03:52:00,13.0,-99.9,-100.00,North,-999,-999.0,-999.0,-999,-99.99,,,1.00,,2013-04-05 11:52:00,
2013-04-05 04:00:00,13.0,-99.9,-100.00,North,-999,-999.0,-999.0,-999,-99.99,,,1.00,,2013-04-05 12:00:00,
2013-04-05 04:43:00,13.0,-99.9,-100.00,North,-999,-999.0,-999.0,-999,-99.99,,,1.00,,2013-04-05 12:43:00,
2013-04-05 04:53:00,13.0,-99.9,-100.00,North,-999,-999.0,-999.0,-999,-99.99,,,1.00,,2013-04-05 12:53:00,
2013-04-05 05:00:00,13.0,-99.9,-100.00,North,-999,-999.0,-999.0,-999,-99.99,,,0.90,,2013-04-05 13:00:00,
2013-04-05 05:43:00,13.0,-99.9,-100.00,North,-999,-999.0,-999.0,-999,-99.99,,,0.90,,2013-04-05 13:43:00,
2013-04-05 05:53:00,13.0,-99.9,-100.00,North,-999,-999.0,-999.0,-999,-99.99,,,0.90,,2013-04-05 13:53:00,
2013-04-05 06:00:00,13.0,-99.9,-100.00,North,-999,-999.0,-999.0,-999,0.10,,,-99.99,,2013-04-05 14:00:00,
2013-04-05 06:44:00,13.0,-99.9,-100.00,North,-999,-999.0,-999.0,-999,0.10,,,-99.99,,2013-04-05 14:44:00,
2013-04-05 06:55:00,13.0,-99.9,-100.00,North,-999,-999.0,-999.0,-999,0.10,,,-99.99,,2013-04-05 14:55:00,
2013-04-05 07:43:00,12.0,-99.9,-100.00,North,-999,-999.0,-999.0,-999,-99.99,,,0.90,,2013-04-05 15:43:00,
2013-04-05 07:55:00,12.0,-99.9,-100.00,North,-999,-999.0,-999.0,-999,-99.99,,,0.90,,2013-04-05 15:55:00,
2013-04-05 08:43:00,10.0,-99.9,-100.00,North,-999,-999.0,-999.0,-999,-99.99,,,1.00,,2013-04-05 16:43:00,
2013-04-05 08:54:00,10.0,-99.9,-100.00,North,-999,-999.0,-999.0,-999,-99.99,,,1.00,,2013-04-05 16:54:00,
2013-04-05 09:47:00,13.0,-99.9,-100.00,North,-999,-999.0,-999.0,-999,-99.99,,,1.00,,2013-04-05 17:47:00,
2013-04-05 09:53:00,13.0,-99.9,-100.00,North,-999,-999.0,-999.0,-999,-99.99,,,1.00,,2013-04-05 17:53:00,
2013-04-05 10:44:00,15.0,-99.9,-100.00,North,-999,-999.0,-999.0,-999,-99.99,,,0.90,,2013-04-05 18:44:00,
2013-04-05 10:53:00,15.0,-99.9,-100.00,North,-999,-999.0,-999.0,-999,-99.99,,,0.90,,2013-04-05 18:53:00,
2013-04-05 11:00:00,26.0,-99.9,-100.00,North,-999,-999.0,-999.0,-999,-99.99,,,1.00,,2013-04-05 19:00:00,
2013-04-05 11:43:00,26.0,-99.9,-100.00,North,-999,-999.0,-999.0,-999,-99.99,,,1.00,,2013-04-05 19:43:00,
2013-04-05 11:53:00,26.0,-99.9,-100.00,North,-999,-999.0,-999.0,-999,-99.99,,,1.00,,2013-04-05 19:53:00,
2013-04-05 12:00:00,34.0,-99.9,-100.00,North,-999,-999.0,-999.0,-999,-99.99,,,0.90,,2013-04-05 20:00:00,
2013-04-05 12:43:00,34.0,-99.9,-100.00,North,-999,-999.0,-999.0,-999,-99.99,,,0.90,,2013-04-05 20:43:00,
2013-04-05 12:53:00,34.0,-99.9,-100.00,North,-999,-999.0,-999.0,-999,-99.99,,,0.90,,2013-04-05 20:53:00,
2013-04-05 13:45:00,36.0,-99.9,-100.00,North,-999,-999.0,-999.0,-999,0.10,,,1.00,,2013-04-05 21:45:00,
2013-04-05 13:56:00,36.0,-99.9,-100.00,North,-999,-999.0,-999.0,-999,0.10,,,1.00,,2013-04-05 21:56:00,
2013-04-05 14:00:00,38.0,-99.9,-100.00,North,-999,-999.0,-999.0,-999,0.00,,,1.00,,2013-04-05 22:00:00,
2013-04-05 14:45:00,38.0,-99.9,-100.00,North,-999,-999.0,-999.0,-999,0.00,,,1.00,,2013-04-05 22:45:00,
2013-04-05 14:53:00,38.0,-99.9,-100.00,North,-999,-999.0,-999.0,-999,0.00,,,1.00,,2013-04-05 22:53:00,
2013-04-05 15:53:00,40.0,-99.9,-100.00,North,-999,-999.0,-999.0,-999,0.00,,,0.90,,2013-04-05 23:53:00,
2013-04-05 16:00:00,38.0,-99.9,-100.00,North,-999,-999.0,-999.0,-999,-99.99,,,1.00,,2013-04-06 00:00:00,
2013-04-05 16:43:00,38.0,-99.9,-100.00,North,-999,-999.0,-999.0,-999,-99.99,,,1.00,,2013-04-06 00:43:00,
2013-04-05 16:53:00,38.0,-99.9,-100.00,North,-999,-999.0,-999.0,-999,-99.99,,,1.00,,2013-04-06 00:53:00,
2013-04-05 17:00:00,33.0,-99.9,-100.00,North,-999,-999.0,-999.0,-999,0.00,,,0.90,,2013-04-06 01:00:00,
2013-04-05 17:54:00,33.0,-99.9,-100.00,North,-999,-999.0,-999.0,-999,0.00,,,0.90,,2013-04-06 01:54:00,
2013-04-05 18:00:00,32.0,-99.9,-100.00,North,-999,-999.0,-999.0,-999,0.10,,,1.00,,2013-04-06 02:00:00,
2013-04-05 18:43:00,32.0,-99.9,-100.00,North,-999,-999.0,-999.0,-999,0.10,,,1.00,,2013-04-06 02:43:00,
2013-04-05 18:53:00,32.0,-99.9,-100.00,North,-999,-999.0,-999.0,-999,0.10,,,1.00,,2013-04-06 02:53:00,
2013-04-05 19:00:00,30.0,-99.9,-100.00,North,-999,-999.0,-999.0,-999,0.00,,,1.00,,2013-04-06 03:00:00,
2013-04-05 19:44:00,30.0,-99.9,-100.00,North,-999,-999.0,-999.0,-999,0.00,,,1.00,,2013-04-06 03:44:00,
2013-04-05 19:55:00,30.0,-99.9,-100.00,North,-999,-999.0,-999.0,-999,0.00,,,1.00,,2013-04-06 03:55:00,
2013-04-05 20:00:00,27.0,-99.9,-100.00,North,-999,-999.0,-999.0,-999,0.00,,,0.90,,2013-04-06 04:00:00,
2013-04-05 20:43:00,27.0,-99.9,-100.00,North,-999,-999.0,-999.0,-999,0.00,,,0.90,,2013-04-06 04:43:00,
2013-04-05 20:53:00,27.0,-99.9,-100.00,North,-999,-999.0,-999.0,-999,0.00,,,0.90,,2013-04-06 04:53:00,
2013-04-05 21:00:00,26.0,-99.9,-100.00,North,-999,-999.0,-999.0,-999,0.10,,,1.00,,2013-04-06 05:00:00,
2013-04-05 21:53:00,26.0,-99.9,-100.00,North,-999,-999.0,-999.0,-999,0.10,,,1.00,,2013-04-06 05:53:00,
2013-04-05 22:00:00,25.0,-99.9,-100.00,North,-999,-999.0,-999.0,-999,0.00,,,0.90,,2013-04-06 06:00:00,
2013-04-05 22:53:00,25.0,-99.9,-100.00,North,-999,-999.0,-999.0,-999,0.00,,,0.90,,2013-04-06 06:53:00,
2013-04-05 23:00:00,25.0,-99.9,-100.00,North,-999,-999.0,-999.0,-999,0.10,,,1.00,,2013-04-06 07:00:00,
2013-04-05 23:45:00,25.0,-99.9,-100.00,North,-999,-999.0,-999.0,-999,0.10,,,1.00,,2013-04-06 07:45:00,
2013-04-05 23:53:00,25.0,-99.9,-100.00,North,-999,-999.0,-999.0,-999,0.10,,,1.00,,2013-04-06 07:53:00,